FENGYUN 1C DEB, 30867

Orbit data source: Space-Track

FENGYUN 1C DEB, 30867 is space debris in SSO originally from a launch on Mon, 10 May 1999 UTC launched from the Taiyaun Space Center, China (TSC). Fengyun 1C debris stems from the Chinese weather satellite Fengyun-1C, which was intentionally destroyed by a Chinese anti-satellite missile in 2007. This event dramatically increased the amount of space debris, with thousands of trackable fragments posing hazards to satellites and human spaceflight. The Fengyun 1C debris cloud has become a focal point in discussions about space sustainability and the need for international regulations to prevent the creation of new debris.

Loading next visibility...
Identifier
30867, 1999-025AXD
Orbit
SSO
Country
Flag of CNCN / PRC
Related business
Manufacturer
Unknown
Mission
Spacecraft
Bus & Motor
Unknown
Mass
Unknown
Launch date (UTC)
1999-05-10 (27 years ago)
Launch vehicle
Unknown
Launch site
Taiyaun Space Center, China (TSC)
Object type
Payload
Rocket body
Debris
Shape & HBR
Unknown shape, 0.1 m
Radar Cross Section
Small (<0.1 m²)

Expand to show TLE details & history
Last TLE update: 20 hours ago

TLE from 20 hours ago
0 FENGYUN 1C DEB
1 30867U 99025AXD 26122.23609317  .00004676  00000-0  18226-2 0  9997
2 30867  97.8734  20.5044 0050328 298.7927 222.0704 14.29414282985434
Epoch: 2026-05-02T05:39Z
TLE epoch observation values (Epoch: 2026-05-02T05:39:58.449Z)
Latitude
19.32963°
Longitude
-101.88035°
Altitude
823.054 km
Speed
7.429 km/s
True Right ascension
13h 33m 04s
True Declination
19° 13' 24"
Sunlit
Object was in full shadow at epoch
Visualization orbit readout
Latitude
Unknown
Longitude
Unknown
Altitude
Unknown
Speed
Unknown
Apparent Right ascension
Unknown
Apparent Declination
Unknown
Sunlit
N/A
Visualization observer readout
Local Sidereal Time
09:36:08
Azimuth
Unknown
Elevation
Unknown
Doppler factor
Unknown
Orbital elements
Apogee altitude
826.877 km
Perigee altitude
754.717 km
Semi-major axis
7,168.934 km
Eccentricity
0.00503
Inclination
97.8734°
RAAN
20.5044°
Arg. of periapsis
298.7927°
True anomaly
221.68577°
Mean anomaly
222.0704°
Eccentric anomaly
221.87791°
Mean motion
3.5757 °/min
Orbital period
100.68 mins
BSTAR
0.0018226
Loading maneuver chart data...
Computing Atmospheric mass density...

Documentation

Showing up to 5 results
|